Tracking 31030 objects as of 16-Jul-2025
HD Live streaming from Space Station
objects crossing your sky now

CZ-6A DEB

Track CZ-6A DEB now!
10-day predictions


NORAD ID: 54592
Int'l Code: 2022-151MS
Perigee: 636.0 km
Apogee: 714.2 km
Inclination: 98.5 °
Period: 98.1 minutes
Semi major axis: 7046 km
RCS: Unknown
Launch date: November 11, 2022
Source: People's Republic of China (PRC)
Launch site: Taiyaun Space Center, China (TSC)

Note: This is SATELLITE DEBRIS
Your satellite tracking list
Your tracking list is empty




NASA's NSSDC Master Catalog

Two Line Element Set (TLE):
1 54592U 22151MS  25196.99069810  .00009573  00000-0  16455-2 0  9998
2 54592  98.5446 227.0488 0055542 252.3025 107.2110 14.67845468140486
Source of the keplerian elements: AFSPC